Date,TemperatureHighF,TemperatureAvgF,TemperatureLowF,DewpointHighF,DewpointAvgF,DewpointLowF,HumidityHigh,HumidityAvg,HumidityLow,PressureMaxIn,PressureMinIn,WindSpeedMaxMPH,WindSpeedAvgMPH,GustSpeedMaxMPH,PrecipitationSumIn
2013-1-1,55.3,47.6,36.1,53.7,43.0,29.9,95,84,70,30.28,29.97,18,6,19,0.11
2013-1-2,45.3,36.2,26.1,30.8,27.8,23.0,92,73,50,30.39,30.27,13,2,15,0.00
2013-1-3,43.9,37.0,23.3,32.9,28.1,20.8,92,72,56,30.51,30.37,16,2,18,0.00
2013-1-4,42.8,38.2,33.5,37.4,34.3,29.5,93,86,59,30.56,30.42,9,2,12,0.32
2013-1-5,54.9,42.8,31.6,42.3,37.6,29.5,93,83,59,30.43,30.24,6,1,9,0.04
2013-1-6,57.9,42.7,26.6,35.1,30.2,24.9,95,66,34,30.45,30.32,13,3,20,0.00
2013-1-7,54.0,41.8,24.3,41.0,32.7,22.0,93,72,49,30.36,30.07,12,3,14,0.00
2013-1-8,52.0,49.0,45.9,49.8,46.0,40.5,93,90,71,30.09,29.90,14,4,18,1.24
2013-1-9,58.3,54.9,47.8,54.6,52.2,46.0,94,91,86,30.04,29.81,32,6,34,0.76
2013-1-10,62.6,49.2,40.9,48.4,44.1,38.5,96,84,55,30.05,29.96,21,2,21,0.01
2013-1-11,74.4,58.7,39.7,61.9,51.7,37.5,94,79,58,30.01,29.79,21,4,22,0.00
2013-1-12,74.8,62.6,41.1,67.3,55.3,32.2,94,78,55,29.94,29.62,21,7,26,0.01
2013-1-13,49.3,40.6,34.2,32.6,27.4,21.5,71,59,43,30.23,29.93,20,10,24,0.00
2013-1-14,48.4,38.4,30.3,29.6,25.4,20.8,70,60,42,30.31,30.12,16,6,18,0.00
2013-1-15,39.4,36.0,31.8,32.2,29.1,22.0,89,76,62,30.32,30.15,19,8,24,0.00
2013-1-16,50.9,38.5,25.8,24.7,21.2,13.2,80,53,22,30.40,30.22,19,4,23,0.00
2013-1-17,63.8,46.3,27.4,38.0,31.1,22.9,91,59,31,30.52,30.34,13,3,19,0.00
2013-1-18,63.9,45.3,26.1,38.1,31.6,23.8,92,64,30,30.54,30.32,11,2,13,0.00
2013-1-19,68.4,49.5,37.7,47.7,39.7,32.2,92,72,40,30.33,30.14,10,2,18,0.00
2013-1-20,72.8,52.6,33.3,46.8,41.0,31.0,93,69,31,30.26,30.07,7,1,14,0.00
2013-1-21,68.9,53.4,38.0,48.4,42.0,35.9,93,68,39,30.26,30.13,11,2,15,0.00
2013-1-22,70.8,54.1,37.0,51.9,43.6,33.5,88,70,47,30.32,30.18,14,2,18,0.00
2013-1-23,73.3,55.6,44.5,58.1,49.8,42.1,93,82,56,30.33,30.17,14,2,15,0.00
2013-1-24,81.9,65.2,51.6,62.3,56.2,49.8,95,76,43,30.23,30.05,10,2,16,0.00
2013-1-25,82.1,66.1,50.5,61.9,56.5,44.6,93,73,43,30.14,29.97,17,4,20,0.00
2013-1-26,62.5,54.7,48.3,57.3,51.0,44.4,92,87,79,30.17,30.06,8,2,11,0.00
2013-1-27,76.7,66.9,54.8,64.7,60.2,52.5,92,80,60,30.09,29.91,16,7,21,0.00
2013-1-28,76.5,70.9,68.2,66.1,64.9,64.0,87,81,67,29.98,29.80,17,8,25,0.00
2013-1-29,81.1,67.6,52.5,66.5,54.1,21.3,88,65,28,29.83,29.47,27,9,33,0.06
2013-1-30,56.8,48.5,28.2,30.0,22.2,13.4,77,38,19,30.24,29.77,29,10,36,0.00
2013-1-31,67.7,44.4,24.1,31.2,23.2,19.2,87,52,17,30.32,30.17,12,2,20,0.00
2013-2-1,69.4,55.8,36.5,42.3,34.2,25.8,72,46,28,30.37,30.15,13,4,22,0.00
2013-2-2,73.0,59.5,43.5,53.3,44.4,35.7,90,59,35,30.30,30.16,13,4,16,0.00
2013-2-3,69.2,58.2,35.9,47.8,38.0,28.0,86,50,24,30.34,29.99,14,5,17,0.00
2013-2-4,74.5,61.4,51.0,59.2,53.3,47.0,91,76,50,30.00,29.77,15,4,20,0.03
2013-2-5,77.5,61.0,41.9,50.7,46.0,39.5,94,62,30,29.99,29.84,12,2,15,0.00
2013-2-6,74.9,64.6,56.3,60.0,56.2,49.3,86,75,58,29.97,29.78,15,5,17,0.00
2013-2-7,83.6,68.4,56.5,60.9,51.0,36.7,89,59,22,30.08,29.82,19,6,22,0.00
2013-2-8,67.2,56.1,47.0,45.3,32.2,22.1,69,43,19,30.23,30.08,23,5,25,0.00
2013-2-9,69.0,57.4,47.4,65.0,52.7,32.8,94,85,48,30.09,29.75,18,8,22,0.00
2013-2-10,69.9,59.5,49.6,65.0,41.7,25.6,94,58,21,30.01,29.70,26,4,31,0.69
2013-2-11,58.9,54.1,50.7,48.7,44.1,36.9,84,69,44,30.12,29.97,12,4,18,0.02
2013-2-12,71.5,59.2,48.6,54.5,43.3,22.9,94,64,20,30.02,29.81,18,5,27,0.01
2013-2-13,70.9,49.3,32.8,37.9,32.8,27.8,89,57,26,30.18,29.82,15,4,20,0.01
2013-2-14,70.9,50.5,30.9,43.4,34.2,28.6,93,60,22,30.15,29.98,13,2,16,0.00
2013-2-15,57.9,47.9,36.1,40.0,33.9,21.8,83,59,38,30.42,30.07,20,5,21,0.00
2013-2-16,63.5,43.4,25.4,32.0,26.6,21.1,88,56,25,30.49,30.22,13,2,15,0.00
2013-2-17,69.2,53.9,33.9,51.0,36.7,27.5,80,56,30,30.23,29.94,20,7,25,0.00
2013-2-18,80.6,66.5,54.6,58.2,47.6,22.7,79,57,13,30.08,29.80,21,8,26,0.00
2013-2-19,64.4,57.1,35.6,35.7,29.4,23.4,77,36,21,30.27,30.07,16,7,21,0.00
2013-2-20,62.6,55.0,52.2,61.2,45.6,30.6,95,73,38,30.12,29.63,23,11,27,0.00
2013-2-21,74.6,64.8,45.8,64.8,38.0,15.3,95,46,11,29.84,29.56,31,7,32,0.00
2013-2-22,58.2,47.9,38.9,38.6,32.4,27.4,80,56,37,30.08,29.80,15,5,19,0.00
2013-2-23,69.3,51.5,31.9,37.5,31.8,26.4,83,50,24,30.10,29.88,19,3,20,0.00
2013-2-24,73.0,56.8,35.0,57.9,44.9,30.4,88,66,41,29.92,29.56,21,8,27,0.00
2013-2-25,62.5,54.0,43.2,58.7,34.0,21.4,89,49,24,29.86,29.53,30,11,42,0.03
2013-2-26,64.8,51.9,33.1,33.1,29.5,25.5,77,44,24,29.98,29.83,21,3,23,0.00
2013-2-27,60.7,50.2,39.3,34.3,26.5,19.3,65,41,23,30.25,29.86,26,8,29,0.00
2013-2-28,60.6,47.0,31.3,30.0,25.4,21.2,75,46,23,30.37,30.20,21,4,22,0.00
2013-3-1,66.7,52.0,25.7,32.0,24.5,16.2,88,40,16,30.33,30.15,22,5,26,0.00
2013-3-2,61.0,47.4,34.3,30.5,28.5,24.6,75,50,29,30.46,30.26,23,5,26,0.00
2013-3-3,75.5,58.4,38.3,42.8,31.9,26.0,69,40,20,30.27,29.88,20,5,26,0.00
2013-3-4,88.8,70.4,54.5,49.6,40.9,12.7,74,41,6,29.88,29.64,13,3,17,0.00
2013-3-5,71.2,54.9,46.4,46.8,21.1,6.8,59,30,11,30.37,29.70,35,12,44,0.00
2013-3-6,63.2,48.3,25.8,24.5,17.7,10.2,71,34,13,30.48,30.22,13,3,15,0.00
2013-3-7,71.0,55.9,38.3,53.7,40.2,19.9,76,56,41,30.26,30.07,17,6,22,0.00
2013-3-8,64.0,60.6,56.5,61.2,56.5,52.3,94,87,75,30.13,29.98,15,8,20,0.01
2013-3-9,73.1,67.1,61.6,65.8,62.3,57.9,91,85,77,29.98,29.60,22,9,24,0.68
2013-3-10,61.8,56.5,45.5,59.2,37.8,30.9,91,51,33,30.12,29.70,29,10,34,0.04
2013-3-11,66.1,46.4,35.1,34.0,28.1,19.0,79,54,19,30.20,30.01,16,4,20,0.00
2013-3-12,78.7,58.2,37.8,39.3,32.2,27.9,79,43,16,30.24,30.04,18,4,21,0.00
2013-3-13,74.0,61.3,44.5,39.8,35.9,30.9,60,40,26,30.43,30.24,15,5,19,0.00
2013-3-14,76.0,62.8,45.6,51.8,44.1,35.4,83,53,32,30.36,30.18,16,4,20,0.00
2013-3-15,79.1,66.6,51.0,54.4,49.3,41.3,90,58,33,30.21,29.94,20,6,23,0.00
2013-3-16,83.2,69.5,54.3,61.2,53.7,48.8,89,60,33,29.96,29.68,22,7,24,0.00
2013-3-17,81.8,71.6,63.7,61.5,59.3,56.4,79,67,45,29.76,29.61,16,4,21,0.00
2013-3-18,83.1,71.1,60.3,64.9,52.6,42.9,93,59,25,29.92,29.67,18,5,23,0.00
2013-3-19,83.3,64.6,42.9,62.7,50.9,38.9,88,63,38,30.00,29.78,20,5,24,0.00
2013-3-20,70.1,59.7,49.2,51.5,41.7,28.0,88,56,21,30.25,30.00,21,6,31,0.05
2013-3-21,74.9,63.5,51.6,58.7,51.2,38.3,82,65,53,30.01,29.57,20,6,25,0.00
2013-3-22,79.5,68.8,54.5,64.3,57.7,45.8,87,69,50,29.75,29.59,15,5,25,0.00
2013-3-23,78.9,61.4,49.4,59.7,51.4,45.3,90,72,37,29.79,29.56,13,4,17,0.00
2013-3-24,60.7,49.4,40.1,56.4,29.3,20.5,89,49,26,30.17,29.67,31,14,39,0.00
2013-3-25,57.4,46.5,34.6,25.0,19.4,13.6,65,36,18,30.41,30.18,14,6,22,0.00
2013-3-26,64.4,48.1,25.1,29.3,21.3,16.7,82,40,17,30.51,30.28,12,3,16,0.00
2013-3-27,67.9,54.1,35.0,47.1,36.4,23.2,71,52,39,30.32,30.13,19,6,24,0.00
2013-3-28,72.2,62.4,49.6,58.9,54.2,45.2,87,75,61,30.18,30.08,16,6,20,0.00
2013-3-29,76.5,67.3,54.3,58.5,55.8,51.7,93,69,49,30.15,30.01,16,6,22,0.00
2013-3-30,82.5,71.8,64.3,62.3,60.1,57.1,85,68,48,30.06,29.83,16,5,19,0.00
2013-3-31,76.5,69.8,65.1,68.2,63.4,58.1,89,80,62,29.94,29.82,13,3,14,0.12
2013-4-1,83.3,70.0,53.5,64.3,59.7,50.9,94,71,46,30.03,29.84,18,5,24,0.12
2013-4-2,76.0,66.6,49.0,66.2,62.2,47.3,95,86,69,30.01,29.78,37,6,41,1.82
2013-4-3,58.0,50.6,47.4,54.7,47.9,44.2,96,91,88,30.16,29.82,23,8,28,0.19
2013-4-4,59.0,49.9,45.0,44.9,42.2,38.4,89,75,57,30.25,30.12,21,8,23,0.00
2013-4-5,71.7,54.1,34.9,49.2,43.5,33.1,94,70,41,30.29,30.04,9,2,11,0.00
2013-4-6,78.5,65.3,50.5,59.1,53.3,45.4,88,67,48,30.05,29.81,17,7,21,0.00
2013-4-7,82.2,69.0,60.8,65.8,60.6,56.5,87,76,53,29.88,29.69,17,7,22,0.00
2013-4-8,73.8,69.4,66.4,67.3,63.8,60.3,89,83,77,29.78,29.62,19,8,23,0.00
2013-4-9,83.5,75.5,69.2,69.4,66.8,64.1,87,75,57,29.66,29.53,23,11,27,0.00
2013-4-10,74.1,52.3,42.3,68.4,46.0,38.4,92,79,64,29.98,29.59,27,10,32,0.01
2013-4-11,67.5,55.9,43.3,43.8,38.7,32.2,77,54,36,29.99,29.78,18,4,22,0.00
2013-4-12,78.6,60.7,39.5,49.9,43.5,37.4,93,59,26,30.00,29.82,15,4,17,0.00
2013-4-13,74.8,64.0,50.7,58.0,52.0,44.5,88,66,42,29.93,29.75,16,4,17,0.00
2013-4-14,89.0,73.9,53.7,65.2,59.4,50.9,92,64,35,29.79,29.53,17,4,18,0.00
2013-4-15,88.6,78.4,69.9,67.2,65.3,62.5,86,66,43,29.73,29.61,18,8,22,0.00
2013-4-16,86.1,75.5,67.8,69.4,65.7,62.6,84,72,54,29.84,29.72,23,9,26,0.00
2013-4-17,82.8,76.0,71.7,70.6,69.1,67.6,92,80,61,29.82,29.62,21,10,25,0.00
2013-4-18,75.6,61.2,48.7,70.8,49.9,35.4,89,68,44,30.10,29.57,27,12,31,0.05
2013-4-19,66.3,53.9,36.5,37.0,29.8,22.0,86,44,19,30.33,30.10,20,5,24,0.00
2013-4-20,71.4,58.4,33.1,45.2,32.5,26.6,89,42,21,30.23,29.97,18,6,22,0.00
2013-4-21,77.4,64.7,47.0,55.4,51.4,43.6,89,64,43,30.14,29.97,15,6,20,0.00
2013-4-22,81.8,70.6,52.4,61.5,57.6,49.8,92,66,46,30.06,29.82,17,6,21,0.00
2013-4-23,74.8,63.4,48.0,64.7,54.5,39.4,85,73,55,30.13,29.79,20,8,24,0.00
2013-4-24,61.9,52.0,42.5,40.7,35.7,30.9,78,56,36,30.30,30.14,20,8,24,0.00
2013-4-25,66.2,60.0,55.2,47.5,43.0,39.6,63,54,43,30.33,30.15,12,4,13,0.00
2013-4-26,79.3,67.6,58.4,68.0,60.8,42.9,93,80,47,30.15,29.97,16,5,18,0.00
2013-4-27,84.4,75.5,67.0,70.0,65.7,59.5,93,73,50,30.04,29.89,12,4,18,0.01
2013-4-28,84.6,74.2,61.7,65.3,61.2,56.2,91,67,40,29.99,29.79,12,4,21,0.00
2013-4-29,83.5,71.8,63.9,67.2,62.4,59.8,92,74,47,29.89,29.72,23,4,26,0.00
2013-4-30,83.2,71.1,63.2,66.5,62.8,60.3,92,77,52,29.80,29.67,14,4,20,0.00
2013-5-1,87.0,76.2,65.3,67.0,64.9,61.7,91,70,48,29.91,29.73,14,5,20,0.00
2013-5-2,75.5,52.7,46.0,64.2,46.1,35.5,92,78,60,30.38,29.84,30,12,33,0.19
2013-5-3,66.9,53.0,40.6,36.4,31.0,22.7,78,48,20,30.38,30.08,24,8,29,0.00
2013-5-4,81.6,60.7,34.2,44.0,34.5,28.7,88,46,16,30.08,29.87,13,2,20,0.00
2013-5-5,75.4,61.7,43.3,48.5,41.5,32.9,75,49,29,30.15,29.98,17,4,22,0.00
2013-5-6,75.3,61.2,44.9,50.7,46.9,41.3,89,62,39,30.14,29.98,8,2,13,0.00
2013-5-7,84.5,67.0,45.3,54.6,49.1,42.5,91,58,29,30.07,29.87,15,4,18,0.00
2013-5-8,80.7,71.7,60.9,65.0,60.6,52.2,87,69,53,29.97,29.82,16,6,19,0.00
2013-5-9,75.4,70.2,62.5,68.8,64.5,59.2,89,82,73,29.98,29.78,34,4,38,0.13
2013-5-10,85.8,69.5,59.8,65.0,60.8,56.4,94,77,40,30.02,29.79,27,5,46,0.58
2013-5-11,79.5,69.0,60.0,60.2,55.7,47.8,94,66,35,30.13,29.99,17,5,23,0.01
2013-5-12,79.1,66.5,51.7,55.1,51.1,45.6,91,61,32,30.26,30.09,12,3,18,0.00
2013-5-13,85.0,67.9,45.7,56.5,49.5,43.2,92,57,27,30.25,30.10,15,2,19,0.00
2013-5-14,85.1,72.9,59.2,66.6,59.0,53.2,85,64,35,30.18,29.94,16,5,19,0.00
2013-5-15,85.7,74.1,63.9,70.8,67.2,61.8,95,80,56,30.04,29.73,21,8,25,0.61
2013-5-16,89.5,77.0,66.1,73.5,69.4,62.7,93,79,53,29.84,29.65,14,7,18,0.04
2013-5-17,93.1,82.0,73.6,74.0,71.5,69.0,88,72,51,29.82,29.71,18,7,18,0.00
2013-5-18,93.8,81.8,71.2,71.2,68.0,63.9,88,65,44,29.85,29.71,22,8,26,0.00
2013-5-19,90.7,81.0,71.4,71.7,68.3,64.6,86,67,50,29.78,29.64,20,9,25,0.00
2013-5-20,92.1,81.4,72.1,71.7,69.0,66.7,87,68,48,29.77,29.61,23,9,24,0.00
2013-5-21,86.9,77.8,68.3,73.0,67.9,57.9,86,72,60,29.85,29.64,19,7,27,0.00
2013-5-22,91.1,74.9,51.9,69.8,58.0,49.5,93,61,30,29.90,29.75,13,3,16,0.00
2013-5-23,86.8,80.1,73.6,72.2,70.8,69.0,86,74,60,29.98,29.82,15,5,17,0.00
2013-5-24,80.4,72.7,67.1,72.0,68.6,64.7,95,87,74,30.08,29.94,12,4,17,1.40
2013-5-25,80.3,72.4,66.9,70.8,68.1,65.1,96,87,69,30.10,29.98,17,5,20,1.74
2013-5-26,85.4,76.9,70.9,73.2,69.9,67.7,92,80,65,30.05,29.91,14,6,20,0.00
2013-5-27,87.6,77.5,71.1,72.4,69.3,66.7,88,77,57,29.95,29.77,17,7,17,0.00
2013-5-28,87.3,79.0,72.2,71.8,68.6,66.5,84,71,53,29.84,29.69,20,9,25,0.00
2013-5-29,85.4,77.8,73.9,73.5,70.1,68.1,86,78,63,29.82,29.64,24,9,27,0.02
2013-5-30,87.7,79.9,75.1,73.4,71.1,69.2,84,75,61,29.78,29.68,17,7,20,0.00
2013-5-31,90.3,81.9,75.9,75.6,72.3,70.2,84,73,60,29.82,29.67,19,8,22,0.00
2013-6-1,93.1,83.5,76.0,76.6,72.3,70.4,84,70,52,29.85,29.71,18,5,23,0.00
2013-6-2,86.2,77.4,67.6,73.7,64.1,60.0,89,65,43,30.03,29.85,17,4,23,0.18
2013-6-3,90.9,76.1,60.1,68.2,62.5,57.2,91,66,37,29.96,29.78,12,3,14,0.00
2013-6-4,90.5,79.7,68.7,68.5,65.7,62.4,91,65,43,29.85,29.73,15,5,20,0.00
2013-6-5,90.8,80.2,69.2,69.9,66.8,63.7,89,66,41,29.85,29.69,16,5,22,0.00
2013-6-6,93.7,81.5,72.0,69.2,65.7,61.7,88,61,35,29.89,29.73,18,4,24,0.00
2013-6-7,85.8,75.9,68.5,64.6,59.3,52.4,84,60,34,29.98,29.83,12,3,14,0.00
2013-6-8,87.7,75.3,57.0,70.2,61.6,53.1,87,64,46,29.90,29.73,15,4,20,0.00
2013-6-9,88.2,79.3,66.3,72.7,69.2,63.3,93,73,50,29.94,29.78,21,4,31,0.89
2013-6-10,93.1,81.8,68.3,73.6,67.5,59.3,93,65,33,29.96,29.85,14,3,15,0.00
2013-6-11,90.8,80.9,71.7,72.9,69.8,64.2,92,71,48,29.99,29.88,15,4,21,0.00
2013-6-12,92.0,81.5,72.1,73.4,70.5,68.4,90,71,49,30.01,29.88,13,4,16,0.00
2013-6-13,93.0,80.6,72.2,74.1,70.2,64.7,92,72,47,30.02,29.89,17,3,25,0.00
2013-6-14,88.4,79.8,72.5,74.6,71.7,68.7,89,77,55,29.96,29.86,10,2,13,0.00
2013-6-15,88.2,80.0,75.2,74.7,72.6,69.4,89,79,58,29.95,29.86,8,2,0,0.00
2013-6-16,93.2,83.4,73.2,73.3,69.6,65.0,89,66,42,29.97,29.84,15,3,17,0.00
2013-6-17,94.8,84.5,75.7,73.6,70.4,67.8,85,65,43,29.96,29.78,18,4,18,0.00
2013-6-18,90.5,81.1,69.3,74.3,70.7,65.6,92,72,51,29.99,29.83,21,3,25,0.77
2013-6-19,93.3,83.7,73.7,72.5,70.1,67.0,89,66,44,29.92,29.84,13,4,17,0.00
2013-6-20,92.9,83.9,73.2,72.4,68.7,64.8,86,62,40,30.01,29.89,16,6,20,0.00
2013-6-21,93.3,84.3,74.0,72.3,67.9,60.6,88,61,34,30.02,29.90,18,6,24,0.00
2013-6-22,93.7,84.0,73.3,71.4,67.6,62.4,87,61,37,30.00,29.83,16,6,19,0.00
2013-6-23,93.0,83.5,73.1,71.9,66.1,58.6,88,59,33,29.93,29.83,16,6,19,0.00
2013-6-24,96.1,84.6,74.5,72.0,68.6,65.2,85,61,38,29.98,29.82,19,8,25,0.00
2013-6-25,96.0,85.8,77.2,71.6,68.5,63.4,81,59,35,29.94,29.80,24,8,24,0.00
2013-6-26,97.5,85.6,76.3,73.8,69.5,65.6,79,61,36,29.93,29.81,15,6,19,0.00
2013-6-27,99.9,86.7,75.6,71.2,64.8,54.7,84,53,23,29.99,29.84,11,4,15,0.00
2013-6-28,105.0,87.8,71.0,72.2,65.4,59.2,85,52,24,29.95,29.75,11,2,15,0.00
2013-6-29,104.6,91.2,73.1,71.1,63.4,54.4,76,43,20,29.83,29.68,13,3,17,0.00
2013-6-30,93.2,83.7,70.8,71.3,65.0,58.2,89,56,37,29.91,29.76,11,3,15,0.14
2013-7-1,87.5,80.8,73.2,64.3,54.7,47.8,57,42,27,29.99,29.86,18,6,26,0.00
2013-7-2,90.6,78.5,60.4,60.7,50.2,39.5,81,42,18,30.06,29.93,13,3,21,0.00
2013-7-3,92.5,79.6,59.1,58.1,48.9,44.2,71,37,20,30.01,29.86,13,3,17,0.00
2013-7-4,92.5,79.8,66.3,65.1,56.9,47.2,82,49,24,29.96,29.84,10,2,14,0.00
2013-7-5,95.4,83.5,64.4,67.3,59.2,52.2,84,48,24,29.95,29.78,16,4,19,0.00
2013-7-6,95.9,84.6,67.8,69.3,63.2,56.6,86,52,28,29.90,29.76,16,5,19,0.00
2013-7-7,96.8,82.2,72.6,72.8,68.6,61.0,87,66,32,29.93,29.83,17,5,18,0.00
2013-7-8,87.2,80.5,74.5,75.3,71.1,66.0,92,74,50,30.06,29.92,11,4,18,0.19
2013-7-9,96.2,85.0,73.1,72.3,69.1,63.3,89,62,36,30.11,29.94,16,5,22,0.00
2013-7-10,98.5,86.7,73.4,72.7,68.5,62.8,88,58,32,30.04,29.85,16,4,21,0.00
2013-7-11,98.7,87.2,75.1,73.4,67.3,60.6,83,55,30,29.96,29.80,12,3,15,0.00
2013-7-12,98.6,87.4,73.5,70.6,65.1,59.6,78,50,29,29.91,29.81,15,3,18,0.00
2013-7-13,101.0,88.6,70.6,68.9,62.9,57.0,83,46,24,29.93,29.77,14,2,19,0.00
2013-7-14,94.9,82.1,70.5,67.8,64.6,60.5,87,57,37,29.87,29.80,20,6,29,0.00
2013-7-15,74.0,70.4,67.0,71.5,67.9,64.4,95,92,87,30.00,29.85,21,6,21,2.98
2013-7-16,86.9,77.3,72.0,74.1,70.6,68.0,95,81,55,30.11,29.99,14,5,17,0.59
2013-7-17,86.3,74.7,69.2,74.1,70.3,66.8,96,87,61,30.16,30.06,25,3,35,0.42
2013-7-18,90.7,79.0,70.3,75.0,69.9,64.4,97,77,43,30.15,29.96,10,3,19,0.01
2013-7-19,91.8,81.0,68.8,73.3,68.0,63.1,94,68,39,30.05,29.86,14,2,19,0.00
2013-7-20,92.1,81.5,71.0,72.5,69.6,64.9,93,70,42,29.96,29.79,13,4,19,0.00
2013-7-21,93.1,80.6,72.6,75.1,71.7,69.5,95,76,50,29.91,29.82,15,3,18,1.39
2013-7-22,94.5,84.4,76.4,75.1,72.7,68.7,92,70,45,29.94,29.83,15,6,20,0.00
2013-7-23,94.5,85.0,77.3,74.3,70.5,63.8,84,64,37,29.95,29.81,16,5,17,0.00
2013-7-24,92.6,84.0,75.6,76.9,72.8,69.9,87,70,48,29.95,29.82,10,3,13,0.00
2013-7-25,95.2,83.5,74.6,74.5,60.8,65.8,89,67,39,29.98,29.90,12,2,14,0.01
2013-7-26,97.2,85.7,75.1,74.2,70.7,68.1,84,63,41,29.97,29.80,15,4,20,0.02
2013-7-27,87.0,79.9,72.5,73.9,70.6,66.4,91,74,51,29.95,29.85,11,5,15,0.00
2013-7-28,93.0,81.0,68.8,76.8,70.3,65.7,91,72,48,29.92,29.78,15,4,19,0.00
2013-7-29,95.7,85.5,76.9,73.9,69.8,62.3,86,62,34,29.96,29.87,19,8,20,0.01
2013-7-30,96.3,85.4,75.7,73.1,69.7,63.6,85,62,36,30.04,29.90,15,6,21,0.00
2013-7-31,100.2,86.3,73.8,71.2,66.7,59.3,88,56,31,30.05,29.87,11,3,13,0.00
2013-8-1,100.9,86.8,72.7,74.7,68.3,64.5,85,57,34,29.98,29.84,10,1,0,0.00
2013-8-2,97.7,86.8,74.3,70.4,65.8,57.8,79,52,29,29.93,29.81,13,3,16,0.00
2013-8-3,96.6,86.1,75.9,71.9,68.2,62.4,84,58,34,29.96,29.86,14,5,16,0.00
2013-8-4,95.3,86.1,74.1,74.2,70.8,67.5,88,62,41,30.02,29.86,14,5,18,0.00
2013-8-5,98.2,86.8,73.5,72.3,67.9,62.5,83,56,32,29.99,29.81,13,5,20,0.00
2013-8-6,99.5,87.5,73.2,74.5,69.0,62.6,85,58,31,29.90,29.74,15,5,17,0.00
2013-8-7,101.4,88.1,75.9,74.7,68.9,57.9,85,57,30,29.86,29.71,13,5,17,0.00
2013-8-8,100.2,87.4,74.2,73.5,67.0,55.4,87,55,23,29.85,29.71,13,5,16,0.00
2013-8-9,99.7,86.1,72.4,72.3,63.5,50.6,90,53,20,29.91,29.80,10,3,14,0.00
2013-8-10,100.4,86.8,71.9,73.0,67.6,57.8,87,56,28,30.00,29.87,11,3,21,0.00
2013-8-11,96.0,84.5,73.5,73.7,70.1,66.5,88,64,40,30.04,29.90,20,3,27,0.00
2013-8-12,96.1,84.0,72.9,72.8,68.6,65.2,88,63,38,30.03,29.87,14,2,21,0.00
2013-8-13,99.6,87.9,74.0,71.2,66.5,60.3,83,52,29,29.99,29.82,12,3,17,0.00
2013-8-14,98.7,84.3,74.2,73.1,69.9,63.6,91,64,37,29.97,29.84,20,3,26,0.23
2013-8-15,89.8,77.5,70.6,74.8,71.9,67.9,96,84,57,29.99,29.87,22,3,37,0.65
2013-8-16,90.2,77.6,70.6,73.7,68.7,63.1,96,77,43,30.03,29.89,25,3,28,0.01
2013-8-17,91.5,80.1,69.8,69.1,64.3,58.8,87,62,35,30.03,29.89,12,3,16,0.00
2013-8-18,92.5,79.4,62.5,66.0,60.8,54.7,90,57,29,30.03,29.93,18,2,18,0.00
2013-8-19,93.1,80.4,66.6,68.1,62.6,59.6,85,57,35,30.02,29.86,11,2,16,0.00
2013-8-20,93.3,81.0,65.2,68.4,62.7,57.6,89,57,31,29.99,29.88,12,3,18,0.00
2013-8-21,94.2,81.7,70.1,73.1,68.5,65.4,90,67,40,30.05,29.91,14,4,19,0.00
2013-8-22,94.2,83.2,70.7,73.8,68.3,64.4,91,64,39,30.06,29.87,11,2,14,0.00
2013-8-23,96.4,85.4,72.4,73.1,68.0,63.8,88,59,37,29.99,29.84,14,3,18,0.00
2013-8-24,96.4,83.6,71.3,72.8,67.8,63.0,86,61,37,30.01,29.88,14,2,17,0.01
2013-8-25,93.3,84.0,71.2,72.7,68.8,65.6,90,62,41,30.05,29.95,16,4,22,0.00
2013-8-26,91.0,80.2,73.9,71.2,69.5,66.7,85,71,47,30.09,29.96,15,6,21,0.00
2013-8-27,81.3,75.4,72.2,76.5,70.5,66.4,93,85,70,30.08,29.98,17,4,23,0.14
2013-8-28,94.0,80.6,68.8,74.2,68.6,65.7,94,70,42,30.08,29.95,12,2,14,0.01
2013-8-29,97.7,83.9,68.6,72.2,66.5,62.1,92,60,32,30.06,29.90,9,1,13,0.00
2013-8-30,100.0,85.0,70.1,69.9,65.3,61.9,85,56,30,29.99,29.82,8,1,13,0.00
2013-8-31,100.6,87.0,70.8,70.2,66.5,62.2,85,54,30,29.89,29.74,8,2,12,0.00
2013-9-1,99.2,86.1,73.6,72.4,67.4,64.4,80,56,35,29.87,29.74,10,2,19,0.00
2013-9-2,96.3,84.9,74.3,72.5,69.0,62.8,83,61,35,29.93,29.79,18,3,21,0.01
2013-9-3,98.7,83.4,69.1,73.4,67.9,63.7,91,63,35,29.97,29.83,16,2,21,0.00
2013-9-4,98.6,84.0,74.4,74.3,69.5,65.4,89,64,38,30.00,29.87,18,2,24,0.06
2013-9-5,96.0,84.3,71.4,72.7,68.1,63.9,86,61,36,30.06,29.93,13,3,19,0.00
2013-9-6,95.4,83.8,68.9,73.4,67.8,63.9,92,62,37,30.05,29.89,13,3,16,0.00
2013-9-7,95.2,81.3,70.0,73.9,68.8,64.1,92,69,37,29.99,29.84,26,3,30,0.00
2013-9-8,93.6,80.1,69.4,72.8,69.1,65.1,93,72,40,29.95,29.82,13,4,19,0.00
2013-9-9,90.9,78.1,69.0,71.6,68.5,65.7,91,74,44,29.96,29.85,19,4,25,0.00
2013-9-10,92.0,78.3,70.1,72.6,69.3,66.8,93,76,44,30.03,29.92,16,4,26,0.06
2013-9-11,92.6,81.6,72.5,73.2,67.6,61.1,90,66,37,30.07,29.94,14,4,17,0.00
2013-9-12,93.7,81.1,66.6,72.1,65.4,60.7,93,62,35,30.04,29.87,13,2,15,0.00
2013-9-13,94.1,79.4,66.8,70.7,64.1,60.1,90,62,33,29.93,29.76,12,1,13,0.00
2013-9-14,95.3,83.3,66.9,70.1,64.0,56.6,85,55,34,29.90,29.78,15,3,18,0.00
2013-9-15,91.4,81.6,70.8,72.7,68.0,64.4,89,66,43,29.98,29.87,14,3,17,0.00
2013-9-16,91.4,78.6,69.8,75.2,70.0,65.8,93,77,47,30.03,29.91,21,3,26,0.17
2013-9-17,90.7,80.3,72.7,74.7,70.6,65.1,94,75,43,30.03,29.88,12,3,15,0.00
2013-9-18,92.6,81.1,69.9,73.4,68.6,64.2,94,69,40,29.98,29.82,15,4,17,0.00
2013-9-19,90.9,78.6,71.5,76.1,71.5,67.8,91,80,51,29.92,29.78,17,3,29,0.49
2013-9-20,76.9,73.7,70.7,74.4,71.1,67.0,94,92,88,29.86,29.76,15,3,21,1.97
2013-9-21,82.2,73.1,65.7,67.2,58.4,48.7,89,64,33,29.93,29.82,18,8,21,0.00
2013-9-22,82.3,68.7,52.9,59.4,52.3,48.1,92,60,31,29.90,29.76,11,2,15,0.00
2013-9-23,86.4,70.1,52.5,59.1,54.0,50.2,93,62,29,29.84,29.72,8,1,15,0.00
2013-9-24,91.6,75.1,58.3,63.3,59.1,55.1,91,62,33,29.91,29.81,13,1,13,0.00
2013-9-25,93.3,78.2,61.9,67.2,62.4,58.9,91,62,36,29.87,29.73,9,2,15,0.00
2013-9-26,89.8,78.9,63.0,71.8,60.1,54.1,80,55,32,29.85,29.77,15,4,18,0.00
2013-9-27,86.5,78.5,72.2,77.7,72.8,68.9,91,83,68,29.87,29.77,15,5,18,0.49
2013-9-28,87.0,79.5,70.8,76.0,73.1,67.4,90,82,65,29.97,29.81,19,6,23,0.88
2013-9-29,75.9,67.4,60.6,67.2,62.2,58.3,93,84,57,30.05,29.92,13,3,16,0.44
2013-9-30,85.5,70.0,54.4,65.2,58.3,53.0,95,70,38,29.95,29.78,8,1,0,0.01
2013-10-1,87.0,74.7,61.3,73.5,66.3,57.5,92,77,53,29.89,29.80,15,4,17,0.00
2013-10-2,89.3,79.7,73.4,74.5,70.7,66.7,90,76,51,29.92,29.80,15,5,17,0.00
2013-10-3,89.1,80.4,71.8,72.8,70.1,67.5,92,72,51,29.89,29.77,16,5,18,0.00
2013-10-4,89.0,79.7,72.3,71.5,69.2,67.6,88,72,51,29.86,29.78,15,6,20,0.00
2013-10-5,85.7,74.2,62.1,71.4,64.0,41.6,90,72,47,30.04,29.83,21,6,24,0.00
2013-10-6,78.4,69.2,50.1,52.6,42.2,33.6,82,41,20,30.14,30.05,17,6,20,0.06
2013-10-7,84.1,62.5,42.9,50.7,44.6,38.3,93,59,21,30.18,30.02,9,1,12,0.00
2013-10-8,83.4,65.9,46.2,53.5,48.5,43.1,92,58,27,30.09,29.94,10,2,13,0.00
2013-10-9,81.7,67.6,53.3,61.3,55.3,48.9,90,67,43,30.04,29.92,15,3,18,0.00
2013-10-10,83.3,71.4,60.4,66.9,62.3,57.2,92,75,51,30.01,29.84,15,4,22,0.00
2013-10-11,86.3,77.8,70.7,72.7,69.4,65.1,86,76,57,29.91,29.78,12,5,18,0.00
2013-10-12,89.4,80.3,73.8,74.3,71.7,68.9,92,76,55,29.99,29.85,15,4,16,0.00
2013-10-13,74.2,70.0,65.1,70.5,67.3,63.6,95,91,83,30.14,29.97,17,5,22,0.93
2013-10-14,80.0,74.0,70.8,73.2,70.5,68.8,95,89,73,30.07,29.88,11,5,0,0.06
2013-10-15,80.1,71.2,55.7,71.3,66.3,52.2,92,85,71,30.01,29.84,15,5,20,0.00
2013-10-16,61.5,55.0,52.6,55.6,52.0,50.3,93,90,81,30.09,29.97,9,3,13,1.26
2013-10-17,72.4,60.0,47.4,53.5,48.7,44.3,92,69,40,30.14,29.97,8,2,0,0.00
2013-10-18,69.3,62.0,53.1,62.6,57.0,49.5,91,84,77,30.03,29.87,20,3,26,0.06
2013-10-19,64.9,53.8,43.4,52.9,43.0,37.2,90,70,39,30.23,30.04,18,6,24,0.00
2013-10-20,73.5,55.9,38.8,52.2,45.6,37.2,95,72,44,30.11,29.90,14,3,16,0.00
2013-10-21,78.2,65.5,55.5,66.6,58.1,48.6,89,78,64,30.08,29.89,19,4,21,0.00
2013-10-22,74.0,60.1,46.7,53.9,45.4,37.0,90,63,27,30.18,30.07,12,4,18,0.00
2013-10-23,81.0,60.2,41.5,53.1,44.4,39.6,94,63,25,30.18,30.07,9,1,0,0.00
2013-10-24,79.9,61.7,43.7,53.0,47.1,41.2,92,64,28,30.23,30.12,8,1,0,0.00
2013-10-25,75.9,63.0,47.5,60.8,54.9,45.3,94,76,56,30.32,30.18,12,3,16,0.00
2013-10-26,79.1,68.6,63.0,66.0,61.8,59.8,91,80,59,30.20,30.02,13,5,0,0.00
2013-10-27,69.5,64.7,60.0,63.1,60.5,57.3,93,86,75,30.11,29.99,10,2,0,0.01
2013-10-28,79.6,71.0,63.6,68.3,65.3,60.6,93,83,65,30.06,29.94,18,6,16,0.00
2013-10-29,82.0,75.2,70.5,70.4,68.0,65.8,89,79,63,30.03,29.92,14,7,17,0.00
2013-10-30,80.9,74.7,70.8,72.6,70.3,67.4,94,87,74,29.99,29.76,12,3,0,0.03
2013-10-31,78.1,68.4,47.4,70.5,52.5,33.1,94,65,20,29.88,29.69,22,4,23,0.06
2013-11-1,82.9,57.7,41.2,52.0,42.9,33.8,94,65,18,30.10,29.83,10,2,15,0.00
2013-11-2,71.1,59.2,43.1,46.5,38.7,31.1,83,50,23,30.30,30.10,14,4,18,0.00
2013-11-3,66.6,53.5,35.4,52.4,40.6,33.0,93,65,37,30.23,30.01,12,4,0,0.00
2013-11-4,63.5,61.1,58.4,61.1,57.2,52.2,92,87,72,30.05,29.96,16,4,0,0.08
2013-11-5,77.6,69.2,63.4,68.0,65.2,61.0,94,88,69,30.00,29.87,11,5,0,0.02
2013-11-6,70.6,58.0,42.7,67.8,51.8,39.1,94,81,53,30.36,29.95,23,5,25,0.23
2013-11-7,64.7,50.9,35.4,44.8,37.9,31.8,92,65,33,30.51,30.36,12,2,0,0.00
2013-11-8,63.5,54.3,44.5,46.8,41.8,35.5,90,65,37,30.40,30.16,12,2,0,0.00
2013-11-9,66.4,60.4,53.7,57.6,52.6,45.9,86,76,70,30.18,30.09,12,3,0,0.00
2013-11-10,69.1,61.7,53.0,59.1,56.1,49.8,90,82,70,30.31,30.17,7,2,0,0.00
2013-11-11,75.0,58.6,44.0,57.8,51.1,42.4,95,78,51,30.29,30.15,6,0,0,0.00
2013-11-12,57.9,50.2,38.6,54.1,41.8,24.5,94,74,51,30.67,30.25,24,7,31,0.00
2013-11-13,54.5,40.0,27.0,30.3,25.5,21.5,87,58,34,30.69,30.43,9,2,0,0.00
2013-11-14,62.3,46.0,26.1,45.2,33.9,23.4,92,66,30,30.43,30.06,15,3,0,0.00
2013-11-15,77.9,62.2,48.9,58.6,52.9,45.1,92,73,48,30.06,29.83,11,2,0,0.00
2013-11-16,77.7,70.4,60.7,68.5,63.7,56.5,88,80,67,29.89,29.71,15,4,16,0.00
2013-11-17,87.7,73.0,54.1,70.0,60.1,48.7,93,68,28,29.94,29.73,15,2,17,0.00
2013-11-18,73.9,63.7,50.0,57.2,49.5,44.0,89,61,46,30.10,29.93,11,2,9,0.00
2013-11-19,70.5,60.9,49.6,50.7,45.3,41.9,78,58,39,30.15,29.97,12,4,0,0.00
2013-11-20,71.5,63.4,57.8,62.7,56.6,48.8,93,79,71,30.00,29.86,14,6,0,0.01
2013-11-21,77.2,70.3,64.6,70.4,66.9,62.6,95,89,78,30.04,29.90,19,3,19,1.05
2013-11-22,65.2,38.7,33.4,63.7,36.3,31.1,95,91,88,30.45,30.04,22,10,25,1.52
2013-11-23,40.3,37.0,34.4,37.0,34.2,31.6,92,89,84,30.54,30.43,15,8,19,0.00
2013-11-24,40.4,36.5,32.5,36.0,31.2,28.3,92,81,69,30.55,30.35,15,6,17,0.21
2013-11-25,40.1,36.6,32.6,36.1,33.6,30.5,93,89,80,30.38,30.13,18,5,20,0.31
2013-11-26,51.8,41.9,36.0,36.2,31.9,27.0,88,69,44,30.41,30.18,21,10,25,0.00
2013-11-27,50.4,38.9,29.3,29.7,25.0,17.4,88,60,32,30.54,30.38,14,3,16,0.00
2013-11-28,53.7,37.9,26.9,31.6,28.7,24.1,92,72,39,30.49,30.36,9,2,0,0.00
2013-11-29,60.1,45.5,27.0,49.0,40.5,24.8,94,84,63,30.55,30.37,10,2,0,0.00
2013-11-30,64.7,58.5,52.7,55.9,52.5,46.9,93,81,72,30.37,30.17,8,3,0,0.00
2013-12-1,69.8,61.1,52.4,59.2,55.8,50.4,94,83,67,30.20,29.93,14,2,15,0.00
2013-12-2,82.0,61.7,45.6,56.8,46.6,35.4,95,65,19,29.94,29.65,12,2,16,0.00
2013-12-3,83.6,56.8,38.3,50.1,42.1,35.9,93,65,19,29.70,29.58,4,0,0,0.00
2013-12-4,79.3,61.8,48.5,64.6,55.0,43.3,94,79,55,29.77,29.64,13,2,0,0.00
2013-12-5,62.2,40.6,29.4,60.7,34.2,23.7,95,78,62,30.15,29.75,21,9,22,0.00
2013-12-6,32.1,30.2,25.9,29.8,25.8,20.0,91,84,77,30.51,30.12,19,9,22,0.00
2013-12-7,28.0,25.6,23.0,22.5,19.7,16.5,83,78,74,30.55,30.34,16,7,20,0.00
2013-12-8,46.6,33.7,26.2,38.5,29.7,21.5,92,85,73,30.33,30.06,5,1,0,0.00
2013-12-9,37.6,34.2,28.2,36.0,32.1,26.2,94,92,86,30.45,30.09,15,5,21,0.03
2013-12-10,44.8,32.8,24.8,28.5,23.7,20.3,89,71,42,30.58,30.38,13,4,20,0.00
2013-12-11,56.7,39.9,23.8,33.0,27.9,21.6,92,66,36,30.60,30.37,14,2,0,0.00
2013-12-12,53.0,39.9,25.9,35.4,30.8,23.1,90,71,49,30.64,30.31,8,1,0,0.00
2013-12-13,46.9,44.1,41.3,45.0,40.7,34.5,95,88,73,30.34,29.91,9,3,0,0.14
2013-12-14,50.2,41.7,33.4,40.3,35.8,29.0,96,80,56,30.39,29.88,25,6,29,0.01
2013-12-15,59.8,41.3,24.6,34.0,29.6,22.4,93,67,32,30.44,30.29,7,1,0,0.00
2013-12-16,68.0,46.9,27.9,38.7,32.6,25.6,92,63,28,30.33,30.19,9,1,0,0.00
2013-12-17,70.1,47.6,29.4,41.3,34.2,26.8,92,65,24,30.35,30.23,6,1,0,0.00
2013-12-18,68.4,50.9,31.5,54.0,43.0,29.4,93,76,52,30.31,30.06,15,3,14,0.00
2013-12-19,71.2,63.3,53.4,60.6,56.9,49.0,90,80,65,30.06,29.78,17,6,19,0.00
2013-12-20,72.3,69.1,60.3,66.3,63.4,50.5,89,82,70,29.83,29.60,14,5,29,0.00
2013-12-21,67.1,49.2,39.8,58.6,42.2,37.2,95,80,35,29.84,29.56,30,3,30,0.80
2013-12-22,49.3,42.2,32.5,38.9,33.7,26.1,94,73,52,30.41,29.84,20,6,23,0.00
2013-12-23,55.3,37.1,23.8,33.4,27.0,19.8,92,70,27,30.57,30.41,5,1,0,0.00
2013-12-24,58.5,40.6,24.8,36.5,28.5,22.8,93,67,33,30.57,30.29,13,3,15,0.00
2013-12-25,60.0,47.1,35.0,48.6,40.4,32.7,95,78,64,30.44,30.27,15,2,14,0.00
2013-12-26,55.1,42.4,31.1,40.0,35.6,28.8,93,78,55,30.47,30.34,6,1,0,0.00
2013-12-27,57.3,47.8,37.6,43.2,38.6,32.7,91,73,40,30.47,30.34,7,1,0,0.00
2013-12-28,60.6,49.1,37.1,47.4,42.2,35.0,93,79,56,30.34,30.02,11,2,0,0.00
2013-12-29,56.5,47.3,30.9,48.6,42.2,28.0,90,83,74,30.34,29.97,20,5,25,0.00
2013-12-30,45.2,36.1,29.8,30.7,26.2,22.0,88,68,47,30.44,30.28,16,4,17,0.00
2013-12-31,54.1,40.5,28.9,35.2,30.6,26.3,91,70,43,30.51,30.27,9,2,0,0.00
2014-1-1,68.9,50.3,33.7,54.0,41.8,28.3,91,74,57,30.26,29.97,24,4,28,0.00
2014-1-2,52.0,39.2,25.7,39.0,25.9,21.0,84,60,36,30.49,30.14,19,7,28,0.00